ProjectID,Date,Electric Generation,Electric Utility Import,Facility Electric Load
,YYYY-MM-DD,kW,kW,kW
430,2017-03-01,0.0,,0.0
430,2017-03-02,0.0,,0.0
430,2017-03-03,0.0,,0.0
430,2017-03-04,0.0,,0.0
430,2017-03-05,0.0,,0.0
430,2017-03-06,0.0,,0.0
430,2017-03-07,0.0,,0.0
430,2017-03-08,0.0,,0.0
430,2017-03-09,0.0,,0.0
430,2017-03-10,0.0,,0.0
430,2017-03-11,0.0,,0.0
430,2017-03-12,0.0,,0.0
430,2017-03-13,0.8220833333333334,27.791739130434784,28.613822463768116
430,2017-03-14,0.0,59.74333333333333,59.74333333333333
430,2017-03-15,3.6616666666666666,57.18958333333333,60.85125
430,2017-03-16,14.424166666666666,34.857083333333335,49.28125
430,2017-03-17,8.22375,0.06916666666666667,8.292916666666667
430,2017-03-18,0.0,0.46625,0.46625
430,2017-03-19,0.0,0.14125000000000001,0.14125000000000001
430,2017-03-20,0.0,0.13375,0.13375
430,2017-03-21,15.490833333333333,0.025416666666666667,15.51625
430,2017-03-22,38.62708333333333,0.0,38.62708333333333
430,2017-03-23,37.611666666666665,0.0004166666666666667,37.61208333333333
430,2017-03-24,41.572916666666664,0.0025,41.57541666666666
430,2017-03-25,46.307500000000005,0.0016666666666666668,46.30916666666667
430,2017-03-26,45.89125000000001,0.0,45.89125000000001
430,2017-03-27,46.02,0.0,46.02
430,2017-03-28,6.2,0.8383333333333334,7.038333333333334
430,2017-03-29,0.0,50.44625,50.44625
430,2017-03-30,24.762083333333333,30.591250000000002,55.35333333333334
430,2017-03-31,48.16791666666666,7.664166666666667,55.83208333333333
430,2017-04-01,48.166666666666664,6.905833333333334,55.0725
430,2017-04-02,46.619166666666665,8.479583333333332,55.098749999999995
430,2017-04-03,43.32791666666666,11.179583333333333,54.50749999999999
430,2017-04-04,51.44958333333333,3.5933333333333333,55.04291666666666
430,2017-04-05,48.04833333333334,5.9025,53.950833333333335
430,2017-04-06,48.342083333333335,8.5175,56.85958333333333
430,2017-04-07,47.99916666666667,7.6933333333333325,55.6925
430,2017-04-08,53.03583333333333,5.59375,58.62958333333333
430,2017-04-09,46.80375,7.37625,54.18
430,2017-04-10,50.95041666666666,2.7375000000000003,53.68791666666666
430,2017-04-11,40.878750000000004,7.8,48.67875
430,2017-04-12,35.775,10.615416666666667,46.39041666666667
430,2017-04-13,10.244583333333333,32.83583333333333,43.080416666666665
430,2017-04-14,31.39625,14.233333333333334,45.62958333333333
430,2017-04-15,36.264583333333334,11.635833333333332,47.900416666666665
430,2017-04-16,36.365,9.341666666666667,45.70666666666667
430,2017-04-17,39.490833333333335,7.489999999999999,46.98083333333334
430,2017-04-18,29.484583333333333,16.1225,45.607083333333335
430,2017-04-19,28.355,23.561666666666667,51.91666666666667
430,2017-04-20,36.0925,14.029166666666667,50.12166666666667
430,2017-04-21,26.893333333333334,23.647916666666664,50.54125
430,2017-04-22,26.321250000000003,22.298333333333332,48.61958333333334
430,2017-04-23,26.364583333333332,21.714583333333334,48.079166666666666
430,2017-04-24,40.834583333333335,7.49625,48.33083333333333
430,2017-04-25,27.122500000000002,16.999583333333334,44.122083333333336
430,2017-04-26,26.596249999999998,18.441666666666666,45.03791666666666
430,2017-04-27,26.178749999999997,15.057916666666666,41.236666666666665
430,2017-04-28,26.125,16.254166666666666,42.37916666666666
430,2017-04-29,25.955,17.920833333333334,43.87583333333333
430,2017-04-30,25.84583333333333,16.487916666666667,42.333749999999995
430,2017-05-01,25.030416666666667,21.815833333333334,46.84625
430,2017-05-02,34.40916666666667,13.3275,47.73666666666667
430,2017-05-03,32.20333333333333,11.890416666666667,44.09375
430,2017-05-04,17.162499999999998,30.754583333333333,47.91708333333333
430,2017-05-05,23.927083333333332,25.666666666666668,49.59375
430,2017-05-06,30.81625,12.770833333333334,43.58708333333333
430,2017-05-07,30.53,19.74833333333333,50.278333333333336
430,2017-05-08,29.989166666666666,22.120833333333334,52.11
430,2017-05-09,27.255,21.028333333333332,48.28333333333333
430,2017-05-10,31.485416666666666,16.62333333333333,48.10875
430,2017-05-11,31.489583333333332,17.16208333333333,48.651666666666664
430,2017-05-12,37.005,9.324166666666667,46.329166666666666
430,2017-05-13,37.72958333333333,12.782916666666667,50.512499999999996
430,2017-05-14,38.02,10.83375,48.853750000000005
430,2017-05-15,38.705416666666665,8.423333333333334,47.12875
430,2017-05-16,33.41791666666666,12.434166666666668,45.85208333333333
430,2017-05-17,33.265,14.824583333333335,48.08958333333334
430,2017-05-18,34.17125,15.873333333333333,50.044583333333335
430,2017-05-19,30.52916666666667,20.105416666666667,50.63458333333334
430,2017-05-20,28.549166666666665,15.51,44.05916666666666
430,2017-05-21,27.262916666666666,14.434583333333334,41.6975
430,2017-05-22,24.197916666666668,19.29625,43.49416666666667
430,2017-05-23,29.49625,14.905000000000001,44.401250000000005
430,2017-05-24,31.96291666666667,12.727916666666667,44.69083333333334
430,2017-05-25,32.63666666666666,11.347499999999998,43.98416666666666
430,2017-05-26,32.037083333333335,11.131666666666668,43.16875
430,2017-05-27,31.493750000000002,10.397916666666667,41.891666666666666
430,2017-05-28,32.4375,9.43125,41.86875
430,2017-05-29,32.36208333333334,11.075416666666667,43.43750000000001
430,2017-05-30,31.989583333333332,11.404583333333333,43.39416666666666
430,2017-05-31,31.838333333333335,10.5275,42.365833333333335
430,2017-06-01,33.35125,10.67,44.02125
430,2017-06-02,31.737916666666667,12.122916666666667,43.86083333333333
430,2017-06-03,32.13125,9.26,41.39125
430,2017-06-04,32.5075,10.154583333333333,42.662083333333335
430,2017-06-05,32.38125,11.409583333333332,43.79083333333333
430,2017-06-06,6.223333333333334,37.95458333333333,44.17791666666667
430,2017-06-07,0.0,41.95291666666667,41.95291666666667
430,2017-06-08,0.0,42.763749999999995,42.763749999999995
430,2017-06-09,17.21875,25.032916666666665,42.251666666666665
430,2017-06-10,32.8425,11.941249999999998,44.78375
430,2017-06-11,33.897083333333335,14.343333333333334,48.24041666666667
430,2017-06-12,31.494583333333335,18.187083333333334,49.68166666666667
430,2017-06-13,34.155833333333334,16.81375,50.96958333333333
430,2017-06-14,33.932916666666664,16.0975,50.03041666666667
430,2017-06-15,33.235416666666666,14.837083333333332,48.0725
430,2017-06-16,33.428333333333335,14.290833333333333,47.719166666666666
430,2017-06-17,33.45791666666667,15.248750000000001,48.70666666666667
430,2017-06-18,33.704166666666666,14.879583333333334,48.58375
430,2017-06-19,33.93208333333333,17.24416666666667,51.176249999999996
430,2017-06-20,33.35333333333333,18.996666666666666,52.349999999999994
430,2017-06-21,33.615833333333335,18.4575,52.07333333333334
430,2017-06-22,31.493333333333336,19.449583333333333,50.94291666666667
430,2017-06-23,34.54416666666666,19.118333333333332,53.662499999999994
430,2017-06-24,34.599583333333335,15.985416666666666,50.585
430,2017-06-25,34.46791666666667,14.922083333333333,49.39
430,2017-06-26,32.8025,15.636249999999999,48.43875
430,2017-06-27,34.11375,13.6025,47.71625
430,2017-06-28,33.182916666666664,13.647083333333333,46.83
430,2017-06-29,34.1725,17.15041666666667,51.32291666666667
430,2017-06-30,34.41833333333333,18.08625,52.50458333333333
430,2017-07-01,34.433749999999996,17.215416666666666,51.64916666666666
430,2017-07-02,33.36958333333333,17.7525,51.122083333333336
430,2017-07-03,34.49125,16.26875,50.760000000000005
430,2017-07-04,34.452083333333334,15.517083333333334,49.969166666666666
430,2017-07-05,34.253750000000004,17.695,51.948750000000004
430,2017-07-06,34.38625,16.674583333333334,51.060833333333335
430,2017-07-07,34.22,17.846666666666668,52.06666666666666
430,2017-07-08,34.31,17.625416666666666,51.93541666666667
430,2017-07-09,34.43625,17.22875,51.665000000000006
430,2017-07-10,34.121249999999996,17.555,51.676249999999996
430,2017-07-11,34.62708333333333,18.27125,52.898333333333326
430,2017-07-12,34.509166666666665,18.207916666666666,52.717083333333335
430,2017-07-13,34.42541666666667,19.79125,54.21666666666667
430,2017-07-14,33.82958333333333,19.12625,52.95583333333333
430,2017-07-15,34.26916666666667,16.85375,51.12291666666667
430,2017-07-16,34.50291666666667,16.844166666666666,51.34708333333334
430,2017-07-17,34.17666666666667,20.265,54.44166666666667
430,2017-07-18,34.52,21.125,55.645
430,2017-07-19,33.805416666666666,20.285833333333333,54.09125
430,2017-07-20,34.43875,19.218333333333334,53.65708333333333
430,2017-07-21,30.951666666666668,22.808333333333334,53.760000000000005
430,2017-07-22,34.402499999999996,18.939583333333335,53.342083333333335
430,2017-07-23,34.03625,18.38083333333333,52.41708333333334
430,2017-07-24,33.48,16.9325,50.412499999999994
430,2017-07-25,33.64791666666667,16.453333333333333,50.10125
430,2017-07-26,32.9175,16.894583333333333,49.812083333333334
430,2017-07-27,33.373333333333335,18.106666666666666,51.480000000000004
430,2017-07-28,33.85666666666666,17.06083333333333,50.91749999999999
430,2017-07-29,30.63,15.184583333333334,45.81458333333333
430,2017-07-30,30.02,14.323749999999999,44.34375
430,2017-07-31,32.947916666666664,15.503749999999998,48.45166666666666
430,2017-08-01,33.78625,16.920833333333334,50.70708333333334
430,2017-08-02,33.595416666666665,18.425833333333333,52.021249999999995
430,2017-08-03,34.01083333333333,18.051666666666666,52.0625
430,2017-08-04,34.26291666666666,19.47791666666667,53.74083333333333
430,2017-08-05,33.687916666666666,16.735833333333336,50.42375
430,2017-08-06,33.42166666666667,16.345,49.766666666666666
430,2017-08-07,32.89208333333333,15.949166666666665,48.841249999999995
430,2017-08-08,33.07833333333333,16.14125,49.21958333333333
430,2017-08-09,32.92208333333333,16.03,48.952083333333334
430,2017-08-10,33.57875,16.93625,50.515
430,2017-08-11,33.925000000000004,17.443749999999998,51.368750000000006
430,2017-08-12,33.874583333333334,16.610416666666666,50.485
430,2017-08-13,34.098333333333336,17.575833333333332,51.674166666666665
430,2017-08-14,33.955416666666665,17.788333333333334,51.74375
430,2017-08-15,33.77125,17.218333333333334,50.989583333333336
430,2017-08-16,34.23458333333333,19.64375,53.87833333333333
430,2017-08-17,34.11125,17.793333333333333,51.904583333333335
430,2017-08-18,34.21208333333333,18.433333333333334,52.64541666666666
430,2017-08-19,34.18666666666667,17.483333333333334,51.67
430,2017-08-20,33.41583333333333,16.914583333333333,50.330416666666665
430,2017-08-21,34.22208333333334,18.642083333333336,52.86416666666668
430,2017-08-22,34.16041666666667,19.66208333333333,53.822500000000005
430,2017-08-23,33.83833333333333,18.04125,51.87958333333333
430,2017-08-24,33.597500000000004,17.4425,51.040000000000006
430,2017-08-25,31.111666666666665,16.0475,47.159166666666664
430,2017-08-26,29.939999999999998,14.394166666666665,44.33416666666666
430,2017-08-27,31.074583333333333,14.725833333333334,45.80041666666666
430,2017-08-28,31.92833333333333,15.152500000000002,47.08083333333333
430,2017-08-29,31.14375,15.917499999999999,47.06125
430,2017-08-30,32.20708333333334,15.220833333333333,47.42791666666667
430,2017-08-31,32.34791666666667,16.113333333333333,48.46125000000001
430,2017-09-01,31.160416666666666,15.615833333333333,46.77625
430,2017-09-02,30.715,14.6875,45.4025
430,2017-09-03,32.15833333333333,15.026666666666666,47.184999999999995
430,2017-09-04,32.209583333333335,15.678333333333333,47.88791666666667
430,2017-09-05,32.655,19.615416666666665,52.27041666666666
430,2017-09-06,34.14333333333334,16.905,51.04833333333334
430,2017-09-07,32.96958333333333,16.857499999999998,49.827083333333334
430,2017-09-08,30.984583333333333,15.359583333333333,46.344166666666666
430,2017-09-09,29.651666666666667,14.282083333333333,43.93375
430,2017-09-10,31.107083333333335,14.417499999999999,45.52458333333333
430,2017-09-11,31.56041666666667,15.231250000000001,46.79166666666667
430,2017-09-12,32.92125,15.828333333333333,48.749583333333334
430,2017-09-13,32.13916666666667,18.43,50.56916666666667
430,2017-09-14,34.489583333333336,17.584166666666665,52.073750000000004
430,2017-09-15,34.64625,17.105833333333333,51.75208333333333
430,2017-09-16,34.30416666666667,16.512916666666666,50.81708333333333
430,2017-09-17,34.00208333333333,16.87333333333333,50.875416666666666
430,2017-09-18,33.21208333333333,16.75916666666667,49.97125
430,2017-09-19,33.7525,17.051666666666666,50.80416666666666
430,2017-09-20,34.22166666666667,16.869583333333335,51.09125
430,2017-09-21,33.87583333333333,15.684583333333334,49.56041666666667
430,2017-09-22,32.84708333333334,15.346666666666666,48.19375
430,2017-09-23,33.5475,15.970416666666667,49.517916666666665
430,2017-09-24,33.74708333333333,15.122083333333334,48.869166666666665
430,2017-09-25,26.152916666666666,14.629583333333334,40.7825
430,2017-09-26,25.685833333333335,11.895416666666668,37.581250000000004
430,2017-09-27,0.0,1.3125,1.3125
430,2017-09-28,0.0,0.0,0.0
430,2017-09-29,0.0,0.0,0.0
430,2017-09-30,0.0,0.0,0.0
430,2017-10-01,0.0,0.0,0.0
430,2017-10-02,0.0,0.0,0.0
430,2017-10-03,0.0,0.0,0.0
430,2017-10-04,0.0,0.0,0.0
430,2017-10-05,0.0,0.0,0.0
430,2017-10-06,0.0,0.0,0.0
430,2017-10-07,0.0,0.0,0.0
430,2017-10-08,0.0,0.0,0.0
430,2017-10-09,0.0,0.0,0.0
430,2017-10-10,0.0,0.0,0.0
430,2017-10-11,0.0,0.0,0.0
430,2017-10-12,0.0,0.0,0.0
430,2017-10-13,0.0,0.0,0.0
430,2017-10-14,0.0,0.0,0.0
430,2017-10-15,0.0,0.0,0.0
430,2017-10-16,0.0,0.0,0.0
430,2017-10-17,0.0,0.0,0.0
430,2017-10-18,0.0,0.0,0.0
430,2017-10-19,0.0,0.0,0.0
430,2017-10-20,0.0,0.0,0.0
430,2017-10-21,0.0,0.0,0.0
430,2017-10-22,0.0,0.0,0.0
430,2017-10-23,0.0,0.0,0.0
430,2017-10-24,0.0,0.0,0.0
430,2017-10-25,0.0,0.0,0.0
430,2017-10-26,0.0,0.0,0.0
430,2017-10-27,0.0,0.0,0.0
430,2017-10-28,0.0,0.0,0.0
430,2017-10-29,0.0,0.0,0.0
430,2017-10-30,0.0,0.0,0.0
430,2017-10-31,0.0,0.0,0.0
430,2017-11-01,0.0,0.0,0.0
430,2017-11-02,0.0,0.0,0.0
430,2017-11-03,16.137083333333333,3.0745833333333334,19.211666666666666
430,2017-11-04,31.27416666666667,18.55125,49.82541666666667
430,2017-11-05,28.87875,16.910833333333333,45.78958333333333
430,2017-11-06,29.692083333333333,14.920833333333334,44.61291666666666
430,2017-11-07,31.661666666666665,19.69666666666667,51.358333333333334
430,2017-11-08,31.862916666666667,23.97458333333333,55.8375
430,2017-11-09,31.7025,21.48375,53.18625
430,2017-11-10,32.85125,21.78,54.63125
430,2017-11-11,32.355,26.002916666666668,58.35791666666667
430,2017-11-12,32.143750000000004,24.66333333333333,56.80708333333334
430,2017-11-13,31.479583333333334,21.15625,52.63583333333334
430,2017-11-14,31.885833333333334,23.0625,54.94833333333334
430,2017-11-15,31.802916666666665,21.34875,53.151666666666664
430,2017-11-16,30.87375,18.137083333333333,49.01083333333334
430,2017-11-17,30.695833333333336,21.865416666666665,52.56125
430,2017-11-18,31.817916666666665,21.129166666666666,52.94708333333333
430,2017-11-19,31.59375,15.878333333333332,47.47208333333333
430,2017-11-20,31.663749999999997,23.70875,55.372499999999995
430,2017-11-21,32.49041666666667,18.16875,50.659166666666664
430,2017-11-22,31.407916666666665,18.145833333333332,49.553749999999994
430,2017-11-23,31.64708333333333,21.97375,53.62083333333333
430,2017-11-24,31.617500000000003,20.55333333333333,52.170833333333334
430,2017-11-25,30.532083333333333,17.492916666666666,48.025
430,2017-11-26,31.600416666666664,18.500416666666666,50.10083333333333
430,2017-11-27,31.517083333333332,20.83875,52.35583333333334
430,2017-11-28,31.772499999999997,20.521666666666665,52.29416666666666
430,2017-11-29,31.21375,14.628333333333332,45.842083333333335
430,2017-11-30,31.17125,20.21875,51.39
430,2017-12-01,31.385,18.92625,50.31125
430,2017-12-02,32.461666666666666,20.246666666666666,52.70833333333333
430,2017-12-03,32.410000000000004,18.66625,51.07625
430,2017-12-04,31.792083333333334,21.00916666666667,52.80125
430,2017-12-05,31.876666666666665,14.335,46.211666666666666
430,2017-12-06,33.03958333333333,18.86583333333333,51.90541666666667
430,2017-12-07,32.4225,21.838333333333335,54.26083333333334
430,2017-12-08,33.128750000000004,25.394583333333333,58.52333333333334
430,2017-12-09,33.205416666666665,25.786666666666665,58.992083333333326
430,2017-12-10,33.530833333333334,23.178749999999997,56.70958333333333
430,2017-12-11,32.72,24.4175,57.1375
430,2017-12-12,32.65375,21.089583333333334,53.74333333333334
430,2017-12-13,33.53416666666667,24.38291666666667,57.91708333333334
430,2017-12-14,34.305,20.719583333333333,55.02458333333333
430,2017-12-15,29.850416666666664,27.27916666666667,57.12958333333333
430,2017-12-16,33.44916666666666,25.765833333333333,59.214999999999996
430,2017-12-17,33.615833333333335,23.53125,57.147083333333335
430,2017-12-18,32.757083333333334,23.19458333333333,55.95166666666667
430,2017-12-19,33.001666666666665,17.558333333333334,50.56
430,2017-12-20,32.339999999999996,19.682916666666667,52.02291666666666
430,2017-12-21,32.968333333333334,22.612916666666667,55.58125
430,2017-12-22,33.08708333333333,23.1775,56.264583333333334
430,2017-12-23,32.50125,23.427083333333332,55.92833333333333
430,2017-12-24,33.245,21.712500000000002,54.957499999999996
430,2017-12-25,32.81583333333334,20.7725,53.58833333333334
430,2017-12-26,34.0175,25.549166666666665,59.56666666666666
430,2017-12-27,34.094166666666666,28.235,62.329166666666666
430,2017-12-28,34.29666666666667,26.72375,61.02041666666666
430,2017-12-29,34.165416666666665,26.57375,60.73916666666666
430,2017-12-30,34.062916666666666,26.49,60.55291666666666
430,2017-12-31,34.48916666666667,27.128333333333334,61.61750000000001
430,2018-01-01,34.130833333333335,25.307916666666667,59.43875
430,2018-01-02,34.49583333333333,26.57166666666667,61.067499999999995
430,2018-01-03,34.427083333333336,25.669166666666666,60.09625
430,2018-01-04,34.29666666666667,23.177916666666665,57.47458333333333
430,2018-01-05,34.22166666666667,25.102083333333336,59.323750000000004
430,2018-01-06,34.75958333333333,25.80458333333333,60.564166666666665
430,2018-01-07,34.58416666666667,27.729166666666668,62.31333333333333
430,2018-01-08,35.003750000000004,25.050416666666667,60.054166666666674
430,2018-01-09,6.435,50.196666666666665,56.63166666666667
430,2018-01-10,19.976666666666667,36.42541666666667,56.40208333333334
430,2018-01-11,31.885,19.09208333333333,50.97708333333333
430,2018-01-12,23.85083333333333,26.49291666666667,50.34375
430,2018-01-13,1.6029166666666665,52.97833333333333,54.58125
430,2018-01-14,0.0,61.00333333333333,61.00333333333333
430,2018-01-15,0.0,60.40291666666667,60.40291666666667
430,2018-01-16,23.24291666666667,36.95166666666667,60.19458333333334
430,2018-01-17,34.058749999999996,24.069999999999997,58.12875
430,2018-01-18,36.28791666666667,24.124166666666667,60.412083333333335
430,2018-01-19,33.03875,25.49083333333333,58.529583333333335
430,2018-01-20,33.967083333333335,22.077083333333334,56.04416666666667
430,2018-01-21,33.532916666666665,20.847916666666666,54.38083333333333
430,2018-01-22,33.074999999999996,20.418333333333333,53.493333333333325
430,2018-01-23,29.752916666666668,20.273333333333333,50.026250000000005
430,2018-01-24,31.256249999999998,22.31375,53.56999999999999
430,2018-01-25,36.11291666666667,21.508333333333336,57.62125
430,2018-01-26,36.567083333333336,23.014583333333334,59.58166666666667
430,2018-01-27,32.94041666666667,21.8,54.740416666666675
430,2018-01-28,30.938333333333333,18.947083333333335,49.88541666666667
430,2018-01-29,34.06125,21.388333333333335,55.44958333333334
430,2018-01-30,36.160000000000004,22.324583333333333,58.48458333333333
430,2018-01-31,37.094166666666666,22.157083333333333,59.25125
430,2018-02-01,33.160000000000004,21.70125,54.861250000000005
430,2018-02-02,35.45166666666667,21.4375,56.88916666666667
430,2018-02-03,36.795,21.97,58.765
430,2018-02-04,35.530833333333334,22.17625,57.70708333333333
430,2018-02-05,34.07,21.85291666666667,55.922916666666666
430,2018-02-06,35.172916666666666,21.76375,56.93666666666667
430,2018-02-07,34.92375,21.175,56.098749999999995
430,2018-02-08,34.458333333333336,21.211666666666666,55.67
430,2018-02-09,35.28541666666667,21.48625,56.77166666666667
430,2018-02-10,32.27833333333333,20.741666666666667,53.019999999999996
430,2018-02-11,30.19875,19.642500000000002,49.84125
430,2018-02-12,29.586250000000003,20.044166666666666,49.63041666666667
430,2018-02-13,34.13791666666666,21.427083333333332,55.565
430,2018-02-14,32.01416666666667,20.865416666666665,52.87958333333333
430,2018-02-15,26.810000000000002,17.960833333333333,44.770833333333336
430,2018-02-16,30.345416666666665,17.605416666666667,47.950833333333335
430,2018-02-17,35.72125,20.519166666666667,56.24041666666666
430,2018-02-18,32.693333333333335,20.374166666666667,53.0675
430,2018-02-19,30.234166666666667,19.677083333333332,49.911249999999995
430,2018-02-20,25.50916666666667,17.270416666666666,42.779583333333335
430,2018-02-21,24.107083333333335,16.827083333333334,40.93416666666667
430,2018-02-22,30.84375,17.711666666666666,48.555416666666666
430,2018-02-23,33.01125,20.45375,53.464999999999996
430,2018-02-24,31.450416666666666,18.83625,50.28666666666666
430,2018-02-25,31.861666666666665,19.99125,51.852916666666665
430,2018-02-26,29.602500000000003,19.64,49.24250000000001
430,2018-02-27,28.948333333333334,19.125,48.07333333333334
430,2018-02-28,26.772499999999997,19.04375,45.81625
430,2018-03-01,27.256666666666664,17.62375,44.88041666666666
430,2018-03-02,32.871249999999996,20.294166666666666,53.16541666666666
430,2018-03-03,33.930416666666666,20.764166666666664,54.69458333333333
430,2018-03-04,32.852916666666665,21.017916666666668,53.87083333333334
430,2018-03-05,34.12833333333334,21.471666666666668,55.60000000000001
430,2018-03-06,33.356249999999996,21.16208333333333,54.51833333333333
430,2018-03-07,34.38666666666666,20.915,55.30166666666666
430,2018-03-08,33.48291666666667,21.038333333333334,54.52125
430,2018-03-09,32.76166666666666,20.636666666666667,53.398333333333326
430,2018-03-10,33.121249999999996,20.375833333333333,53.49708333333333
430,2018-03-11,34.072916666666664,19.656666666666666,53.72958333333333
430,2018-03-12,32.46666666666667,20.770833333333332,53.2375
430,2018-03-13,34.64791666666667,20.7625,55.41041666666666
430,2018-03-14,33.86708333333333,21.484166666666667,55.35125
430,2018-03-15,32.358333333333334,20.566666666666666,52.925
430,2018-03-16,31.45625,20.304583333333333,51.76083333333334
430,2018-03-17,33.462916666666665,21.356666666666666,54.81958333333333
430,2018-03-18,32.307916666666664,20.48375,52.791666666666664
430,2018-03-19,32.086666666666666,20.174583333333334,52.261250000000004
430,2018-03-20,33.23458333333333,20.80125,54.03583333333333
430,2018-03-21,34.514583333333334,20.957916666666666,55.4725
430,2018-03-22,30.322083333333335,20.535833333333333,50.85791666666667
430,2018-03-23,31.00791666666667,20.041666666666668,51.04958333333334
430,2018-03-24,30.410833333333333,20.092916666666667,50.50375
430,2018-03-25,32.094166666666666,20.49875,52.59291666666667
430,2018-03-26,31.455833333333334,20.2625,51.718333333333334
430,2018-03-27,32.78791666666667,19.643333333333334,52.431250000000006
430,2018-03-28,31.145833333333332,20.8625,52.00833333333333
430,2018-03-29,29.077083333333334,18.791666666666668,47.868750000000006
430,2018-03-30,27.99416666666667,18.75125,46.74541666666667
430,2018-03-31,28.888333333333335,19.372916666666665,48.261250000000004
430,2018-04-01,24.853333333333335,18.370416666666667,43.22375
430,2018-04-02,31.7925,20.354166666666668,52.14666666666667
430,2018-04-03,31.78625,20.56375,52.349999999999994
430,2018-04-04,29.461250000000003,19.646666666666665,49.10791666666667
430,2018-04-05,31.407083333333333,19.767500000000002,51.17458333333333
430,2018-04-06,28.080833333333334,19.985,48.06583333333333
430,2018-04-07,31.159583333333334,18.09375,49.25333333333333